Regional Weather Roundup
Issued by NWS Nashville, TN

Home | Current Version | Previous Version | Text Only | Print | Product List | Glossary On
Versions: 1 2 3 4 5 6 7 8 9 10 11 12 13 14 15 16 17 18 19 20 21 22 23 24 25 26 27 28 29 30 31 32 33 34 35 36 37 38 39 40 41 42 43 44 45 46 47 48 49 50
000
ASUS44 KOHX 290815
RWROHX
MIDDLE TENNESSEE HOURLY WEATHER ROUNDUP
NATIONAL WEATHER SERVICE NASHVILLE TN
300 AM CDT FRI MAY 29 2015

NOTE: "FAIR" INDICATES FEW OR NO CLOUDS BELOW 12,000 FEET WITH
NO SIGNIFICANT WEATHER AND/OR OBSTRUCTIONS TO VISIBILITY.

* THESE REPORTS ARE NOT UNDER NWS QUALITY CONTROL AND MAY NOT
  REPORT WEATHER SUCH AS PRECIPITATION AND FOG.


TNZ005>011-023>034-057-059-062>066-078-080-290900
...NORTHERN MIDDLE TENNESSEE...

CITY           SKY/WX    TMP DP  RH WIND       PRES   REMARKS
CASTALIAN SPRG   N/A     64  64 100 CALM      29.90F
CLARKSVILLE    CLEAR     69  65  86 S7        30.08F
CROSSVILLE     CLEAR     65  62  90 CALM      30.17S
GLADEVILLE*      N/A     66  64  94 CALM      30.05S
JOELTON*         N/A     66  64  94 CALM      30.02S
LIVINGSTON     CLEAR     67  62  84 CALM      30.15
MOUNT JULIET*    N/A     66  64  94 CALM      29.94S
NASHVILLE      CLEAR     66  64  93 SE3       30.10F
OLD HICKORY*     N/A     68  68 100 CALM      29.73S
PORTLAND       CLEAR     64  64 100 SE3       30.10S
ROCKWOOD         N/A     61  61 100 W3          N/A  VSB 3/4
SMYRNA         PTCLDY    67  66  96 E5        30.11S
SPARTA         CLEAR     63  63 100 E5G25     30.13S
$$
TNZ056-058-060-061-075>077-079-093>097-290900
...SOUTHERN MIDDLE TENNESSEE...

CITY           SKY/WX    TMP DP  RH WIND       PRES   REMARKS
COLUMBIA       CLEAR     66  64  94 SE3       30.08S
LEWISBURG      CLOUDY    64  63  97 CALM      30.10S VSB 1/2
MANCHESTER*      N/A     64   0   7 CALM      30.05R
MCMINNVILLE    CLOUDY    64  64 100 CALM      30.13R VSB 1/4
MOUNT PLEASANT   N/A     66  66 100 CALM      30.01F
SHELBYVILLE    CLEAR     64  64 100 CALM      30.12R
TULLAHOMA      CLEAR     64  64 100 CALM      30.13S
WINCHESTER     CLEAR     66  64  94 SW3       30.13R
$$


...KEY TO REMARKS...
VSB - VISIBILITY IN MILES
WCI - WIND CHILL INDEX
HX  - HEAT INDEX



USA.gov is the U.S. government's official web portal to all federal, state and local government web resources and services.